Year,Month,Day,Hour,Minute,Value (Times are PST for temperature in C)
2018,09,26,08,16,11.70
2018,09,26,08,17,11.70
2018,09,26,08,18,11.70
2018,09,26,08,19,11.80
2018,09,26,08,20,11.80
2018,09,26,08,21,11.80
2018,09,26,08,22,11.90
2018,09,26,08,23,11.90
2018,09,26,08,24,11.90
2018,09,26,08,25,11.90
2018,09,26,08,26,12.00
2018,09,26,08,27,12.00
2018,09,26,08,28,12.00
2018,09,26,08,29,12.10
2018,09,26,08,30,12.10
2018,09,26,08,31,12.10
2018,09,26,08,32,12.20
2018,09,26,08,33,12.20
2018,09,26,08,34,12.20
2018,09,26,08,35,12.20
2018,09,26,08,36,12.20
2018,09,26,08,37,12.30
2018,09,26,08,38,12.30
2018,09,26,08,39,12.30
2018,09,26,08,40,12.30
2018,09,26,08,41,12.30
2018,09,26,08,42,12.30
2018,09,26,08,43,12.40
2018,09,26,08,44,12.40
2018,09,26,08,45,12.40
2018,09,26,08,46,12.40
2018,09,26,08,47,12.40
2018,09,26,08,48,12.40
2018,09,26,08,49,12.50
2018,09,26,08,50,12.50
2018,09,26,08,51,12.50
2018,09,26,08,52,12.50
2018,09,26,08,53,12.50
2018,09,26,08,54,12.50
2018,09,26,08,55,12.60
2018,09,26,08,56,12.60
2018,09,26,08,57,12.60
2018,09,26,08,58,12.60
2018,09,26,08,59,12.60
2018,09,26,09,00,12.70
2018,09,26,09,01,12.70
2018,09,26,09,02,12.70
2018,09,26,09,03,12.70
2018,09,26,09,04,12.70
2018,09,26,09,05,12.80
2018,09,26,09,06,12.80
2018,09,26,09,07,12.80
2018,09,26,09,08,12.80
2018,09,26,09,09,12.80
2018,09,26,09,10,12.80
2018,09,26,09,11,12.90
2018,09,26,09,12,12.90
2018,09,26,09,13,12.90
2018,09,26,09,14,13.00
2018,09,26,09,15,13.00
2018,09,26,09,16,13.00
2018,09,26,09,17,13.00
2018,09,26,09,18,13.10
2018,09,26,09,19,13.10
2018,09,26,09,20,13.10
2018,09,26,09,21,13.10
2018,09,26,09,22,13.10
2018,09,26,09,23,13.10
2018,09,26,09,24,13.10
2018,09,26,09,25,13.10
2018,09,26,09,26,13.10
2018,09,26,09,27,13.10
2018,09,26,09,28,13.20
2018,09,26,09,29,13.20
2018,09,26,09,30,13.20
2018,09,26,09,31,13.20
2018,09,26,09,32,13.20
2018,09,26,09,33,13.20
2018,09,26,09,34,13.30
2018,09,26,09,35,13.30
2018,09,26,09,36,13.30
2018,09,26,09,37,13.30
2018,09,26,09,38,13.30
2018,09,26,09,39,13.30
2018,09,26,09,40,13.40
2018,09,26,09,41,13.40
2018,09,26,09,42,13.50
2018,09,26,09,43,13.50
2018,09,26,09,44,13.60
2018,09,26,09,45,13.60
2018,09,26,09,46,13.60
2018,09,26,09,47,13.60
2018,09,26,09,48,13.60
2018,09,26,09,49,13.60
2018,09,26,09,50,13.60
2018,09,26,09,51,13.60
2018,09,26,09,52,13.60
2018,09,26,09,53,13.60
2018,09,26,09,54,13.60
2018,09,26,09,55,13.60
2018,09,26,09,56,13.70
2018,09,26,09,57,13.70
2018,09,26,09,58,13.70
2018,09,26,09,59,13.80
2018,09,26,10,00,13.80
2018,09,26,10,01,13.90
2018,09,26,10,02,13.90
2018,09,26,10,03,14.00
2018,09,26,10,04,14.00
2018,09,26,10,05,14.00
2018,09,26,10,06,14.00
2018,09,26,10,07,14.00
2018,09,26,10,08,14.00
2018,09,26,10,09,14.00
2018,09,26,10,10,14.10
2018,09,26,10,11,14.10
2018,09,26,10,12,14.10
2018,09,26,10,13,14.20
2018,09,26,10,14,14.20
2018,09,26,10,15,14.20
2018,09,26,10,16,14.20
2018,09,26,10,17,14.20
2018,09,26,10,18,14.20
2018,09,26,10,19,14.20
2018,09,26,10,20,14.20
2018,09,26,10,21,14.20
2018,09,26,10,22,14.30
2018,09,26,10,23,14.20
2018,09,26,10,24,14.30
2018,09,26,10,25,14.30
2018,09,26,10,26,14.30
2018,09,26,10,27,14.30
2018,09,26,10,28,14.40
2018,09,26,10,29,14.40
2018,09,26,10,30,14.40
2018,09,26,10,31,14.40
2018,09,26,10,32,14.40
2018,09,26,10,33,14.50
2018,09,26,10,34,14.50
2018,09,26,10,35,14.50
2018,09,26,10,36,14.50
2018,09,26,10,37,14.50
2018,09,26,10,38,14.50
2018,09,26,10,39,14.50
2018,09,26,10,40,14.60
2018,09,26,10,41,14.60
2018,09,26,10,42,14.60
2018,09,26,10,43,14.70
2018,09,26,10,44,14.70
2018,09,26,10,45,14.70
2018,09,26,10,46,14.70
2018,09,26,10,47,14.70
2018,09,26,10,48,14.70
2018,09,26,10,49,14.70
2018,09,26,10,50,14.70
2018,09,26,10,51,14.70
2018,09,26,10,52,14.80
2018,09,26,10,53,14.80
2018,09,26,10,54,14.80
2018,09,26,10,55,14.90
2018,09,26,10,56,14.90
2018,09,26,10,57,14.90
2018,09,26,10,58,14.90
2018,09,26,10,59,14.90
2018,09,26,11,00,14.90
2018,09,26,11,01,14.90
2018,09,26,11,02,14.90
2018,09,26,11,03,15.00
2018,09,26,11,04,15.00
2018,09,26,11,05,15.10
2018,09,26,11,06,15.10
2018,09,26,11,07,15.10
2018,09,26,11,08,15.10
2018,09,26,11,09,15.10
2018,09,26,11,10,15.10
2018,09,26,11,11,15.10
2018,09,26,11,12,15.10
2018,09,26,11,13,15.10
2018,09,26,11,14,15.20
2018,09,26,11,15,15.20
2018,09,26,11,16,15.20
2018,09,26,11,17,15.20
2018,09,26,11,18,15.30
2018,09,26,11,19,15.30
2018,09,26,11,20,15.30
2018,09,26,11,21,15.40
2018,09,26,11,22,15.40
2018,09,26,11,23,15.40
2018,09,26,11,24,15.40
2018,09,26,11,25,15.50
2018,09,26,11,26,15.50
2018,09,26,11,27,15.60
2018,09,26,11,28,15.60
2018,09,26,11,29,15.60
2018,09,26,11,30,15.60
2018,09,26,11,31,15.60
2018,09,26,11,32,15.50
2018,09,26,11,33,15.60
2018,09,26,11,34,15.60
2018,09,26,11,35,15.70
2018,09,26,11,36,15.70
2018,09,26,11,37,15.70
2018,09,26,11,38,15.70
2018,09,26,11,39,15.70
2018,09,26,11,40,15.70
2018,09,26,11,41,15.70
2018,09,26,11,42,15.70
2018,09,26,11,43,15.70
2018,09,26,11,44,15.70
2018,09,26,11,45,15.70
2018,09,26,11,46,15.70
2018,09,26,11,47,15.70
2018,09,26,11,48,15.70
2018,09,26,11,49,15.60
2018,09,26,11,50,15.60
2018,09,26,11,51,15.60
2018,09,26,11,52,15.60
2018,09,26,11,53,15.60
2018,09,26,11,54,15.60
2018,09,26,11,55,15.70
2018,09,26,11,56,15.70
2018,09,26,11,57,15.80
2018,09,26,11,58,15.80
2018,09,26,11,59,15.80
2018,09,26,12,00,15.90
2018,09,26,12,01,15.90
2018,09,26,12,02,16.00
2018,09,26,12,03,16.00
2018,09,26,12,04,16.10
2018,09,26,12,05,16.10
2018,09,26,12,06,16.10
2018,09,26,12,07,16.10
2018,09,26,12,08,16.10
2018,09,26,12,09,16.20
2018,09,26,12,10,16.20
2018,09,26,12,11,16.20
2018,09,26,12,12,16.20
2018,09,26,12,13,16.10
2018,09,26,12,14,16.00
2018,09,26,12,15,16.00
2018,09,26,12,16,16.00
2018,09,26,12,17,16.00
2018,09,26,12,18,16.00
2018,09,26,12,19,16.00
2018,09,26,12,20,16.00
2018,09,26,12,21,16.10
2018,09,26,12,22,16.10
2018,09,26,12,23,16.00
2018,09,26,12,24,16.00
2018,09,26,12,25,16.00
2018,09,26,12,26,16.10
2018,09,26,12,27,16.10
2018,09,26,12,28,16.20
2018,09,26,12,29,16.30
2018,09,26,12,30,16.30
2018,09,26,12,31,16.40
2018,09,26,12,32,16.40
2018,09,26,12,33,16.30
2018,09,26,12,34,16.30
2018,09,26,12,35,16.20
2018,09,26,12,36,16.20
2018,09,26,12,37,16.20
2018,09,26,12,38,16.30
2018,09,26,12,39,16.30
2018,09,26,12,40,16.30
2018,09,26,12,41,16.20
2018,09,26,12,42,16.20
2018,09,26,12,43,16.10
2018,09,26,12,44,16.10
2018,09,26,12,45,16.10
2018,09,26,12,46,16.20
2018,09,26,12,47,16.20
2018,09,26,12,48,16.30
2018,09,26,12,49,16.30
2018,09,26,12,50,16.40
2018,09,26,12,51,16.40
2018,09,26,12,52,16.30
2018,09,26,12,53,16.30
2018,09,26,12,54,16.30
2018,09,26,12,55,16.30
2018,09,26,12,56,16.30
2018,09,26,12,57,16.30
2018,09,26,12,58,16.30
2018,09,26,12,59,16.30
2018,09,26,13,00,16.30
2018,09,26,13,01,16.30
2018,09,26,13,02,16.30
2018,09,26,13,03,16.20
2018,09,26,13,04,16.20
2018,09,26,13,05,16.20
2018,09,26,13,06,16.30
2018,09,26,13,07,16.30
2018,09,26,13,08,16.40
2018,09,26,13,09,16.40
2018,09,26,13,10,16.50
2018,09,26,13,11,16.50
2018,09,26,13,12,16.50
2018,09,26,13,13,16.50
2018,09,26,13,14,16.50
2018,09,26,13,15,16.60
2018,09,26,13,16,16.60
2018,09,26,13,17,16.60
2018,09,26,13,18,16.60
2018,09,26,13,19,16.60
2018,09,26,13,20,16.60
2018,09,26,13,21,16.60
2018,09,26,13,22,16.60
2018,09,26,13,23,16.60
2018,09,26,13,24,16.60
2018,09,26,13,25,16.60
2018,09,26,13,26,16.70
2018,09,26,13,27,16.70
2018,09,26,13,28,16.70
2018,09,26,13,29,16.70
2018,09,26,13,30,16.80
2018,09,26,13,31,16.90
2018,09,26,13,32,16.90
2018,09,26,13,33,16.90
2018,09,26,13,34,16.90
2018,09,26,13,35,16.90
2018,09,26,13,36,16.90
2018,09,26,13,37,16.90
2018,09,26,13,38,16.80
2018,09,26,13,39,16.80
2018,09,26,13,40,16.80
2018,09,26,13,41,16.80
2018,09,26,13,42,16.90
2018,09,26,13,43,17.00
2018,09,26,13,44,17.10
2018,09,26,13,45,17.10
2018,09,26,13,46,17.20
2018,09,26,13,47,17.20
2018,09,26,13,48,17.30
2018,09,26,13,49,17.30
2018,09,26,13,50,17.20
2018,09,26,13,51,17.20
2018,09,26,13,52,17.20
2018,09,26,13,53,17.20
2018,09,26,13,54,17.20
2018,09,26,13,55,17.20
2018,09,26,13,56,17.30
2018,09,26,13,57,17.30
2018,09,26,13,58,17.30
2018,09,26,13,59,17.30
2018,09,26,14,00,17.30
2018,09,26,14,01,17.30
2018,09,26,14,02,17.30
2018,09,26,14,03,17.30
2018,09,26,14,04,17.30
2018,09,26,14,05,17.30
2018,09,26,14,06,17.40
2018,09,26,14,07,17.30
2018,09,26,14,08,17.30
2018,09,26,14,09,17.30
2018,09,26,14,10,17.30
2018,09,26,14,11,17.30
2018,09,26,14,12,17.30
2018,09,26,14,13,17.20
2018,09,26,14,14,17.20
2018,09,26,14,15,17.20
2018,09,26,14,16,17.20
2018,09,26,14,17,17.20
2018,09,26,14,18,17.20
2018,09,26,14,19,17.20
2018,09,26,14,20,17.20
2018,09,26,14,21,17.20
2018,09,26,14,22,17.10
2018,09,26,14,23,17.10
2018,09,26,14,24,17.10
2018,09,26,14,25,17.10
2018,09,26,14,26,17.10
2018,09,26,14,27,17.10
2018,09,26,14,28,17.00
2018,09,26,14,29,17.00
2018,09,26,14,30,16.90
2018,09,26,14,31,16.90
2018,09,26,14,32,17.00
2018,09,26,14,33,17.00
2018,09,26,14,34,17.10
2018,09,26,14,35,17.10
2018,09,26,14,36,17.10
2018,09,26,14,37,17.20
2018,09,26,14,38,17.20
2018,09,26,14,39,17.20
2018,09,26,14,40,17.20
2018,09,26,14,41,17.20
2018,09,26,14,42,17.20
2018,09,26,14,43,17.20
2018,09,26,14,44,17.20
2018,09,26,14,45,17.30
2018,09,26,14,46,17.30
2018,09,26,14,47,17.30
2018,09,26,14,48,17.30
2018,09,26,14,49,17.30
2018,09,26,14,50,17.20
2018,09,26,14,51,17.30
2018,09,26,14,52,17.30
2018,09,26,14,53,17.30
2018,09,26,14,54,17.40
2018,09,26,14,55,17.40
2018,09,26,14,56,17.50
2018,09,26,14,57,17.50
2018,09,26,14,58,17.50
2018,09,26,14,59,17.50
2018,09,26,15,00,17.50
2018,09,26,15,01,17.50
2018,09,26,15,02,17.50
2018,09,26,15,03,17.50
2018,09,26,15,04,17.50
2018,09,26,15,05,17.40
2018,09,26,15,06,17.50
2018,09,26,15,07,17.50
2018,09,26,15,08,17.50
2018,09,26,15,09,17.60
2018,09,26,15,10,17.60
2018,09,26,15,11,17.70
2018,09,26,15,12,17.70
2018,09,26,15,13,17.70
2018,09,26,15,14,17.70
2018,09,26,15,15,17.70
2018,09,26,15,16,17.70
2018,09,26,15,17,17.70
2018,09,26,15,18,17.70
2018,09,26,15,19,17.70
2018,09,26,15,20,17.70
2018,09,26,15,21,17.70
2018,09,26,15,22,17.70
2018,09,26,15,23,17.70
2018,09,26,15,24,17.70
2018,09,26,15,25,17.70
2018,09,26,15,26,17.80
2018,09,26,15,27,17.80
2018,09,26,15,28,17.80
2018,09,26,15,29,17.80
2018,09,26,15,30,17.90
2018,09,26,15,31,17.90
2018,09,26,15,32,18.00
2018,09,26,15,33,18.00
2018,09,26,15,34,18.00
2018,09,26,15,35,18.00
2018,09,26,15,36,18.00
2018,09,26,15,37,18.10
2018,09,26,15,38,18.00
2018,09,26,15,39,18.00
2018,09,26,15,40,17.90
2018,09,26,15,41,17.90
2018,09,26,15,42,18.00
2018,09,26,15,43,18.00
2018,09,26,15,44,18.00
2018,09,26,15,45,18.00
2018,09,26,15,46,18.10
2018,09,26,15,47,18.10
2018,09,26,15,48,18.10
2018,09,26,15,49,18.10
2018,09,26,15,50,18.10
2018,09,26,15,51,18.10
2018,09,26,15,52,18.20
2018,09,26,15,53,18.20
2018,09,26,15,54,18.30
2018,09,26,15,55,18.40
2018,09,26,15,56,18.40
2018,09,26,15,57,18.50
2018,09,26,15,58,18.50
2018,09,26,15,59,18.50
2018,09,26,16,00,18.60
2018,09,26,16,01,18.60
2018,09,26,16,02,18.60
2018,09,26,16,03,18.70
2018,09,26,16,04,18.70
2018,09,26,16,05,18.60
2018,09,26,16,06,18.40
2018,09,26,16,07,18.20
2018,09,26,16,08,18.00
2018,09,26,16,09,17.90
2018,09,26,16,10,17.80
2018,09,26,16,11,17.80
2018,09,26,16,12,17.70
2018,09,26,16,13,17.70
2018,09,26,16,14,17.60
2018,09,26,16,15,17.50
2018,09,26,16,16,17.50
2018,09,26,16,17,17.40
2018,09,26,16,18,17.40
2018,09,26,16,19,17.40
2018,09,26,16,20,17.40
2018,09,26,16,21,17.40
2018,09,26,16,22,17.30
2018,09,26,16,23,17.20
2018,09,26,16,24,17.10
2018,09,26,16,25,17.00
2018,09,26,16,26,16.90
2018,09,26,16,27,16.90
2018,09,26,16,28,16.80
2018,09,26,16,29,16.80
2018,09,26,16,30,16.80
2018,09,26,16,31,16.80
2018,09,26,16,32,16.80
2018,09,26,16,33,16.90
2018,09,26,16,34,16.90
2018,09,26,16,35,16.90
2018,09,26,16,36,17.00
2018,09,26,16,37,17.00
2018,09,26,16,38,17.00
2018,09,26,16,39,17.00
2018,09,26,16,40,17.10
2018,09,26,16,41,17.10
2018,09,26,16,42,17.10
2018,09,26,16,43,17.00
2018,09,26,16,44,17.00
2018,09,26,16,45,17.00
2018,09,26,16,46,16.90
2018,09,26,16,47,16.90
2018,09,26,16,48,17.00
2018,09,26,16,49,17.00
2018,09,26,16,50,16.90
2018,09,26,16,51,16.80
2018,09,26,16,52,16.80
2018,09,26,16,53,16.70
2018,09,26,16,54,16.70
2018,09,26,16,55,16.60
2018,09,26,16,56,16.60
2018,09,26,16,57,16.60
2018,09,26,16,58,16.60
2018,09,26,16,59,16.60
2018,09,26,17,00,16.60
2018,09,26,17,01,16.60
2018,09,26,17,02,16.60
2018,09,26,17,03,16.60
2018,09,26,17,04,16.60
2018,09,26,17,05,16.60
2018,09,26,17,06,16.60
2018,09,26,17,07,16.60
2018,09,26,17,08,16.60
2018,09,26,17,09,16.60
2018,09,26,17,10,16.60
2018,09,26,17,11,16.60
2018,09,26,17,12,16.60
2018,09,26,17,13,16.60
2018,09,26,17,14,16.60
2018,09,26,17,15,16.60
2018,09,26,17,16,16.60
2018,09,26,17,17,16.60
2018,09,26,17,18,16.60
2018,09,26,17,19,16.60
2018,09,26,17,20,16.60
2018,09,26,17,21,16.60
2018,09,26,17,22,16.70
2018,09,26,17,23,16.70
2018,09,26,17,24,16.80
2018,09,26,17,25,16.80
2018,09,26,17,26,16.80
2018,09,26,17,27,16.80
2018,09,26,17,28,16.80
2018,09,26,17,29,16.80
2018,09,26,17,30,16.80
2018,09,26,17,31,16.80
2018,09,26,17,32,16.80
2018,09,26,17,33,16.80
2018,09,26,17,34,16.70
2018,09,26,17,35,16.70
2018,09,26,17,36,16.70
2018,09,26,17,37,16.70
2018,09,26,17,38,16.60
2018,09,26,17,39,16.60
2018,09,26,17,40,16.60
2018,09,26,17,41,16.60
2018,09,26,17,42,16.60
2018,09,26,17,43,16.60
2018,09,26,17,44,16.60
2018,09,26,17,45,16.70
2018,09,26,17,46,16.70
2018,09,26,17,47,16.70
2018,09,26,17,48,16.70
2018,09,26,17,49,16.70
2018,09,26,17,50,16.70
2018,09,26,17,51,16.70
2018,09,26,17,52,16.70
2018,09,26,17,53,16.70
2018,09,26,17,54,16.60
2018,09,26,17,55,16.60
2018,09,26,17,56,16.60
2018,09,26,17,57,16.60
2018,09,26,17,58,16.50
2018,09,26,17,59,16.50
2018,09,26,18,00,16.50
2018,09,26,18,01,16.50
2018,09,26,18,02,16.50
2018,09,26,18,03,16.50
2018,09,26,18,04,16.50
2018,09,26,18,05,16.50
2018,09,26,18,06,16.50
2018,09,26,18,07,16.50
2018,09,26,18,08,16.50
2018,09,26,18,09,16.50
2018,09,26,18,10,16.50
2018,09,26,18,11,16.50
2018,09,26,18,12,16.50
2018,09,26,18,13,16.50
2018,09,26,18,14,16.50
2018,09,26,18,15,16.50
2018,09,26,18,16,16.50
2018,09,26,18,17,16.40
2018,09,26,18,18,16.40
2018,09,26,18,19,16.40
2018,09,26,18,20,16.40
2018,09,26,18,21,16.50
2018,09,26,18,22,16.50
2018,09,26,18,23,16.50
2018,09,26,18,24,16.60
2018,09,26,18,25,16.60
2018,09,26,18,26,16.70
2018,09,26,18,27,16.70
2018,09,26,18,28,16.70
2018,09,26,18,29,16.80
2018,09,26,18,30,16.80
2018,09,26,18,31,16.90
2018,09,26,18,32,16.90
2018,09,26,18,33,16.90
2018,09,26,18,34,16.90
2018,09,26,18,35,17.00
2018,09,26,18,36,17.00
2018,09,26,18,37,17.00
2018,09,26,18,38,17.00
2018,09,26,18,39,17.00
2018,09,26,18,40,17.00
2018,09,26,18,41,17.10
2018,09,26,18,42,17.10
2018,09,26,18,43,17.10
2018,09,26,18,44,17.10
2018,09,26,18,45,17.10
2018,09,26,18,46,17.10
2018,09,26,18,47,17.10
2018,09,26,18,48,17.10
2018,09,26,18,49,17.10
2018,09,26,18,50,17.00
2018,09,26,18,51,17.00
2018,09,26,18,52,17.00
2018,09,26,18,53,17.00
2018,09,26,18,54,16.90
2018,09,26,18,55,16.90
2018,09,26,18,56,16.90
2018,09,26,18,57,16.90
2018,09,26,18,58,16.90
2018,09,26,18,59,16.80
2018,09,26,19,00,16.80
2018,09,26,19,01,16.80
2018,09,26,19,02,16.80
2018,09,26,19,03,16.80
2018,09,26,19,04,16.70
2018,09,26,19,05,16.70
2018,09,26,19,06,16.70
2018,09,26,19,07,16.60
2018,09,26,19,08,16.60
2018,09,26,19,09,16.50
2018,09,26,19,10,16.50
2018,09,26,19,11,16.50
2018,09,26,19,12,16.40
2018,09,26,19,13,16.40
2018,09,26,19,14,16.40
2018,09,26,19,15,16.40
2018,09,26,19,16,16.30
2018,09,26,19,17,16.30
2018,09,26,19,18,16.20
2018,09,26,19,19,16.20
2018,09,26,19,20,16.20
2018,09,26,19,21,16.20
2018,09,26,19,22,16.20
2018,09,26,19,23,16.10
2018,09,26,19,24,16.10
2018,09,26,19,25,16.10
2018,09,26,19,26,16.10
2018,09,26,19,27,16.10
2018,09,26,19,28,16.00
2018,09,26,19,29,16.00
2018,09,26,19,30,16.00
2018,09,26,19,31,16.00
2018,09,26,19,32,15.90
2018,09,26,19,33,15.90
2018,09,26,19,34,15.90
2018,09,26,19,35,15.90
2018,09,26,19,36,15.90
2018,09,26,19,37,15.90
2018,09,26,19,38,15.80
2018,09,26,19,39,15.80
2018,09,26,19,40,15.80
2018,09,26,19,41,15.80
2018,09,26,19,42,15.80
2018,09,26,19,43,15.80
2018,09,26,19,44,15.80
2018,09,26,19,45,15.80
2018,09,26,19,46,15.70
2018,09,26,19,47,15.70
2018,09,26,19,48,15.70
2018,09,26,19,49,15.70
2018,09,26,19,50,15.70
2018,09,26,19,51,15.70
2018,09,26,19,52,15.70
2018,09,26,19,53,15.70
2018,09,26,19,54,15.70
2018,09,26,19,55,15.60
2018,09,26,19,56,15.60
2018,09,26,19,57,15.60
2018,09,26,19,58,15.60
2018,09,26,19,59,15.60
2018,09,26,20,00,15.60
2018,09,26,20,01,15.60
2018,09,26,20,02,15.60
2018,09,26,20,03,15.50
2018,09,26,20,04,15.50
2018,09,26,20,05,15.50
2018,09,26,20,06,15.50
2018,09,26,20,07,15.40
2018,09,26,20,08,15.40
2018,09,26,20,09,15.40
2018,09,26,20,10,15.40
2018,09,26,20,11,15.40
2018,09,26,20,12,15.40
2018,09,26,20,13,15.40
2018,09,26,20,14,15.40
2018,09,26,20,15,15.40
2018,09,26,20,16,15.30
2018,09,26,20,17,15.30
2018,09,26,20,18,15.30
2018,09,26,20,19,15.30
2018,09,26,20,20,15.30
2018,09,26,20,21,15.30
2018,09,26,20,22,15.30
2018,09,26,20,23,15.30
2018,09,26,20,24,15.30
2018,09,26,20,25,15.30
2018,09,26,20,26,15.20
2018,09,26,20,27,15.20
2018,09,26,20,28,15.20
2018,09,26,20,29,15.20
2018,09,26,20,30,15.20
2018,09,26,20,31,15.20
2018,09,26,20,32,15.20
2018,09,26,20,33,15.20
2018,09,26,20,34,15.10
2018,09,26,20,35,15.10
2018,09,26,20,36,15.10
2018,09,26,20,37,15.10
2018,09,26,20,38,15.10
2018,09,26,20,39,15.10
2018,09,26,20,40,15.10
2018,09,26,20,41,15.10
2018,09,26,20,42,15.10
2018,09,26,20,43,15.10
2018,09,26,20,44,15.00
2018,09,26,20,45,15.00
2018,09,26,20,46,15.00
2018,09,26,20,47,15.00
2018,09,26,20,48,15.00
2018,09,26,20,49,15.00
2018,09,26,20,50,15.00
2018,09,26,20,51,15.00
2018,09,26,20,52,15.00
2018,09,26,20,53,15.00
2018,09,26,20,54,15.00
